008  
ASUS42 KTBW 051916  
RWRFL  
FLORIDA REGIONAL WEATHER ROUNDUP  
NATIONAL WEATHER SERVICE TAMPA BAY RUSKIN FL  
300 PM EDT SUN JUL 05 2015  
 
NOTE: "FAIR" INDICATES FEW OR NO CLOUDS BELOW 12,000 FEET WITH NO  
SIGNIFICANT WEATHER AND/OR S TO VISIBILITY
.  
 
 
FLZ001>010-012>015-112-114-115-052000-  
PANHANDLE FLORIDA  
 
CITY SKY/WX TMP DP RH WIND PRES REMARKS
 
PENSACOLA CLOUDY 76 71 85 SE8 30.16F  
PENSACOLA NAS CLOUDY 78 71 79 SE6 30.16F  
MILTON NAS CLOUDY 78 71 79 S8 30.17  
CRESTVIEW CLOUDY 75 71 87 SE6 30.17F  
DUKE FIELD PTSUNNY 76 70 83 SE8 30.15F  
VALPARAISO MOSUNNY 77 71 83 SE6 30.16F  
MARY ESTHER CLOUDY 77 71 82 SE6 30.15F  
TRI COUNTY CLOUDY 70 69 97 CALM 30.18F  
PANAMA CITY MOCLDY 72 70 93 SE7 30.16R  
TYNDALL AFB CLOUDY 73 71 93 E6 30.17F  
APALACHICOLA CLOUDY 77 69 76 N9 30.18F  
 
STATION/POSITION SKY/WX TEMP WIND PRES WAVE SWELL
 
AIR SEA DIR/SP/G HT/PER HT/PER  
(F) (DEG/KT/KT) (MB) (FT/S) (FT/S)  
30.1N 87.6W 80 84 120/ 4/ 6 1020.9F 1/ 4 2/ 4  
29.2N 88.2W 83 87 110/ 8/ 8 1020.9F 2/ 4 2/ 6  
28.8N 86.0W 80 85 310/ 16/ 17 1022.7R 3/ 3  
PANAMA CITY BEAC 71 82 360/ 5/ 7 1021.5F  
CAPE SAN BLAS NOT AVBL  
TOWER C 76 360/ 16/ 18 1022.0F  
28.5N 84.5W 86 89 270/ 6/ 8 1021.9R 1/ 4 2/ 4  
 

 
FLZ011-016>038-118-127-128-134-139-239-052000-  
NORTH FLORIDA  
 
CITY SKY/WX TMP DP RH WIND PRES REMARKS
 
MARIANNA LGT RAIN 70 70 100 CALM 30.17F  
TALLAHASSEE RAIN 72 69 90 N8 30.19F  
PERRY N/A 73 73 100 NW14G23 30.21R  
CROSS CITY N/A 93 76 57 W12 30.13F HX 105  
LAKE CITY FAIR 82 72 69 N8 30.14F  
GAINESVILLE MOSUNNY 92 70 48 S7 30.11F HX 97  
MAYPORT NAS SUNNY 85 76 74 SE14 30.13F  
JACKSONVILLE PTSUNNY 90 71 53 S7 30.10F HX 96  
JAX NAS MOSUNNY 95 70 44 SE8 30.12F HX 101  
JAX CRAIG PTSUNNY 87 72 60 SE12 30.12F  
JAX CECIL MOSUNNY 93 70 46 S6 30.11F HX 99  
FERNANDINA BEA FAIR 88 73 62 SE12 30.11F HX 96  
ST AUGUSTINE SUNNY 86 78 77 SE16 30.14F HX 98  
 
STATION/POSITION SKY/WX TEMP WIND PRES WAVE SWELL
 
AIR SEA DIR/SP/G HT/PER HT/PER  
(F) (DEG/KT/KT) (MB) (FT/S) (FT/S)  
SHELL POINT 330/ 15/ 23 N/A  
KEATON BEACH 78 320/ 14/ 24 1022.0R  
CEDAR KEY 87 250/ 8/ 11 1021.7R  
FERNANDINA 85 79 130/ 8/ 12 1019.8F  
30.7N 81.3W 79 N/A 2/10  
MAYPORT 83 75 100/ 10/ 13 1021.0F  
31.4N 80.9W 79 80 170/ 10/ 12 1020.8F 2/ 8 2/ 8  
ST AUGUSTINE 78 76 130/ 11/ 12 1021.2F  
 

 
FLZ040-043>046-052-053-057-058-063-144-052000-  
INTERIOR CENTRAL FLORIDA  
 
CITY SKY/WX TMP DP RH WIND PRES REMARKS
 
OCALA TSTM 88 70 55 SW21G32 30.13F  
THE VILLAGES N/A N/A N/A N/A SE6G12 30.02F  
LEESBURG SUNNY 92 71 50 VRB6 30.13F HX 98  
SANFORD MOSUNNY 93 69 45 S8 30.11F HX 98  
ORLANDO EXEC MOSUNNY 93 72 50 S8 30.11F HX 101  
ORLANDO INTL MOSUNNY 93 71 48 S9 30.12F HX 100  
KISSIMMEE PTSUNNY 91 72 52 S9 30.13F HX 98  
WINTER HAVEN SUNNY 93 71 48 S5 30.14F HX 100  
LAKELAND PTSUNNY 91 73 55 SW7 30.14F HX 100  
OKEECHOBEE SUNNY 91 70 49 S7 30.14S THUNDER HX 97  
 

 
FLZ041-047-054-059-064-141-147-052000-  
EAST CENTRAL FLORIDA  
 
CITY SKY/WX TMP DP RH WIND PRES REMARKS
 
ORMOND BEACH MOSUNNY 86 73 66 E12 30.13F  
DAYTONA BEACH PTSUNNY 89 75 63 E8 30.13F HX 99  
DELAND N/A 90 72 55 CALM 30.13F HX 96  
NEW SMYRNA BEA MOSUNNY 86 77 74 E8 30.15F HX 97  
JFK SPACE CTR PTSUNNY 87 76 68 SE9 30.13F HX 98  
TITUSVILLE PTSUNNY 88 75 66 SE15 30.14F HX 97  
CAPE CANAVERAL MOSUNNY 89 76 65 SE15 30.13F HX 100  
PATRICK AFB SUNNY 86 78 76 SE12 30.14F HX 97  
MELBOURNE TSTM 85 73 67 SE10 30.15S  
VERO BEACH MOSUNNY 87 72 60 E13 30.14F  
FT PIERCE PTSUNNY 87 73 62 SE13 30.13F  
 
STATION/POSITION SKY/WX TEMP WIND PRES WAVE SWELL
 
AIR SEA DIR/SP/G HT/PER HT/PER  
(F) (DEG/KT/KT) (MB) (FT/S) (FT/S)  
28.5N 80.2W 83 84 130/ 4/ 4 1021.8F  
28.9N 78.5W 77 84 30/ 10/ 12 1023.0F  
TRIDENT PIER 89 77 110/ 5/ 10 1021.9F  
28.4N 80.5W 82 N/A 2/ 9  
27.5N 80.2W 85 N/A 1/ 9  
 

 
FLZ050-056-061-142-242-148-248-149-249-151-251-155-255-  
160-260-052000-  
WEST CENTRAL FLORIDA  
 
CITY SKY/WX TMP DP RH WIND PRES REMARKS
 
CRYSTAL RIVER FAIR 88 70 55 E5 30.16R  
INVERNESS TSTM N/A N/A N/A NW16G46 30.23R VSB 1/2  
BROOKSVILLE MOSUNNY 86 74 67 W9 30.14F  
ZEPHYRHILLS FAIR 91 68 46 CALM 30.13F HX 95  
CLEARWATER MOSUNNY 83 75 77 NW3 30.13F  
TAMPA INTL MOSUNNY 91 73 55 SW8 30.13F HX 99  
TAMPA EXEC MOSUNNY N/A N/A N/A S3 30.13F  
PLANT CITY MOSUNNY 95 75 52 S6 30.14F HX 107  
MACDILL AFB MOSUNNY 94 78 59 SW6 30.12F HX 109  
PETER O KNIGHT MOSUNNY 95 73 49 SW6 30.13F HX 105  
ST PETERSBURG MOSUNNY 90 73 57 W9 30.11F HX 98  
SARASOTA MOSUNNY 91 74 57 W13 30.12F HX 100  
VENICE FAIR 90 73 58 SW10 30.13F HX 98  
 
STATION/POSITION SKY/WX TEMP WIND PRES WAVE SWELL
 
AIR SEA DIR/SP/G HT/PER HT/PER  
(F) (DEG/KT/KT) (MB) (FT/S) (FT/S)  
CEDAR KEY 87 250/ 8/ 11 1021.7R  
28.5N 84.5W 86 89 270/ 6/ 8 1021.9R 1/ 4 2/ 4  
27.3N 84.2W 89 N/A 1/ 7  
CLEARWATER BEACH NOT AVBL  
MIDDLE TAMPA BAY 280/ 9/ 10 1021.1F  
VENICE 87 89 210/ 10/ 10 1020.2F  
 

 
FLZ066-069-070-075>078-162-262-165-265-052000-  
SOUTHWEST FLORIDA AND KEYS  
 
CITY SKY/WX TMP DP RH WIND PRES REMARKS
 
PUNTA GORDA PTSUNNY 92 73 53 S8 30.13F HX 100  
FT MYERS CLOUDY 90 76 63 SW6 30.11F HX 101  
SOUTHWEST INTL CLOUDY 91 73 55 S5 30.12F HX 99  
NAPLES CLOUDY 88 77 69 SW12 30.12S HX 100  
MARCO ISLAND CLEAR 90 75 62 SW5 30.12F HX 100  
MARATHON MOSUNNY 91 78 65 E10G18 30.12F HX 106  
KEY WEST NAS CLOUDY 90 75 61 E16 30.12F HX 100  
KEY WEST INTL MOSUNNY 90 78 68 E14 30.12F HX 104  
 
STATION/POSITION SKY/WX TEMP WIND PRES WAVE SWELL
 
AIR SEA DIR/SP/G HT/PER HT/PER  
(F) (DEG/KT/KT) (MB) (FT/S) (FT/S)  
VENICE 87 89 210/ 10/ 10 1020.2F  
NAPLES 88 1021.1F  
26.0N 85.6W 85 87 70/ 6/ 8 1020.3F 2/ 8 2/ 8  
DRY TORTUGAS 85 110/ 10/ 12 1020.2F  
NW FL BAY 87 130/ 10/ 12 1020.7  
SAND KEY 85 90/ 15/ 17 1019.9F  
SOMBRERO KEY 86 90/ 12/ 13 1021.2F  
LONG KEY 85 88 120/ 12/ 14 1020.9F  
MOLASSES REEF 84 87 110/ 12/ 14 1020.9F  
 

 
FLZ067-068-071>074-168-172>174-052000-  
SOUTHEAST FLORIDA  
 
CITY SKY/WX TMP DP RH WIND PRES REMARKS
 
W PALM BEACH MOSUNNY 90 73 57 SE14G22 30.16S HX 98  
FT LAUDER-EXEC MOSUNNY 90 72 55 SE9G18 30.13F HX 97  
FT LAUDERDALE MOSUNNY 89 74 60 SE13 30.14S HX 98  
POMPANO BEACH SUNNY 90 74 59 SE12 30.14F HX 99  
PEMBROKE PINES SUNNY 93 70 46 SE9 30.15S HX 99  
OPA LOCKA MOSUNNY 90 73 57 SE12G21 30.14F HX 98  
MIAMI PTSUNNY 90 73 57 SE12 30.14F HX 98  
WEST KENDALL MOSUNNY 91 75 59 E12G20 30.13F HX 101  
HOMESTEAD SUNNY 90 76 62 E14 30.13F HX 101  
 
STATION/POSITION SKY/WX TEMP WIND PRES WAVE SWELL
 
AIR SEA DIR/SP/G HT/PER HT/PER  
(F) (DEG/KT/KT) (MB) (FT/S) (FT/S)  
PORT EVERGLADES 86 140/ 9/ 11 1021.1F  
VIRGINIA KEY 85 88 110/ 8/ 12 1020.9F  
LAKE WORTH 84 86 150/ 11/ 12 1020.9F  
SETTLEMENT POINT 86 170/ 9/ 11 1021.9F  
 

 
 
CLICK HERE TO GO TO PREVIOUS BULLETINS.

The Nexlab FL Page Main Text Page